Bennington, VT

9:49 AM EDT on May 25, 2017 (GMT -0400)
Morse State

Weather History for KDDH - October, 2012

Change the Weather History Date:

Thursday, October 11, 2012

  Actual Average Record
Temperature  
Mean Temperature 44 °F 49 °F  
Max Temperature 53 °F 60 °F 79 °F (2003)
Min Temperature 34 °F 38 °F 29 °F (2016)
Degree Days  
Heating Degree Days 21 16  
Month to date heating degree days 125 156  
Since 1 July heating degree days 340 434  
Cooling Degree Days 0 0  
Month to date cooling degree days 2 0  
Year to date cooling degree days 476 311  
Moisture  
Dew Point 34 °F    
Average Humidity 67    
Maximum Humidity 89    
Minimum Humidity 44    
Precipitation  
Precipitation T in 0.13 in 0.67 in (2007)
Month to date precipitation 0.85 1.36  
Year to date precipitation 25.46 32.47  
Sea Level Pressure  
Sea Level Pressure 30.06 in    
Wind  
Wind Speed 6 mph (West)    
Max Wind Speed 16 mph    
Max Gust Speed 25 mph    
Visibility 10 miles    
Events      
T = Trace of Precipitation, MM = Missing Value Source: NWS Daily Summary

Daily Weather History Graph

Daily Weather History Graph

Search for Another Location

Airport or City:

Trip Planner

Search our weather history database for the weather conditions in past years. The results will help you decide how hot, cold, wet, or windy it might be!

Date:

Astronomy

Oct. 11, 2012 Rise Set
Actual Time 7:02 AM EDT 6:16 PM EDT
Civil Twilight 6:33 AM EDT 6:44 PM EDT
Nautical Twilight 6:00 AM EDT 7:17 PM EDT
Astronomical Twilight 5:28 AM EDT 7:50 PM EDT
Moon 2:31 AM EDT (10/11) 3:56 PM EDT (10/11)
Length of Visible Light 12h 10m
Length of Day
11h 14m
Waning Crescent, 18% of the Moon is Illuminated
Oct 11
Waning Crescent
Oct 15
New
Oct 21
First Quarter
Oct 29
Full
Nov 6
Last Quarter

Hourly Weather History & Observations

Time (EDT) Temp. Windchill Dew Point Humidity Pressure Visibility Wind Dir Wind Speed Gust Speed Precip Events Conditions
12:54 AM 45.0 °F 41.2 °F 37.0 °F 74% 29.88 in 10.0 mi Variable 6.9 mph - N/A   Mostly Cloudy
1:54 AM 44.1 °F 42.5 °F 35.1 °F 71% 29.91 in 10.0 mi West 3.5 mph - N/A   Partly Cloudy
2:54 AM 44.1 °F 40.1 °F 35.1 °F 71% 29.92 in 10.0 mi Variable 6.9 mph - N/A   Overcast
3:54 AM 42.1 °F 37.7 °F 34.0 °F 73% 29.95 in 10.0 mi Variable 6.9 mph 19.6 mph N/A   Partly Cloudy
4:19 AM 42.8 °F 37.5 °F 33.8 °F 70% 29.95 in 10.0 mi West 9.2 mph - N/A   Mostly Cloudy
4:54 AM 42.1 °F 38.4 °F 35.1 °F 76% 29.97 in 10.0 mi Variable 5.8 mph - N/A   Overcast
5:54 AM 42.1 °F 37.7 °F 34.0 °F 73% 30.00 in 10.0 mi Variable 6.9 mph 18.4 mph N/A   Overcast
7:54 AM 41.0 °F 35.8 °F 35.1 °F 79% 30.06 in 10.0 mi West 8.1 mph - N/A   Mostly Cloudy
8:03 AM 41.0 °F 35.8 °F 35.6 °F 81% 30.05 in 10.0 mi WSW 8.1 mph 16.1 mph N/A   Scattered Clouds
8:54 AM 44.1 °F 39.0 °F 36.0 °F 73% 30.10 in 10.0 mi West 9.2 mph - N/A   Mostly Cloudy
9:54 AM 46.0 °F 40.6 °F 37.0 °F 71% 30.12 in 10.0 mi West 11.5 mph 19.6 mph N/A   Scattered Clouds
10:54 AM 46.9 °F - 36.0 °F 66% 30.13 in 10.0 mi West 13.8 mph 19.6 mph N/A   Scattered Clouds
11:21 AM 46.4 °F 41.1 °F 35.6 °F 66% 30.13 in 10.0 mi West 11.5 mph 16.1 mph N/A   Overcast
11:54 AM 46.9 °F - 36.0 °F 66% 30.14 in 10.0 mi West 8.1 mph 19.6 mph 0.00 in   Overcast
12:54 PM 48.0 °F - 36.0 °F 63% 30.13 in 10.0 mi West 9.2 mph - 0.00 in   Mostly Cloudy
1:54 PM 48.0 °F - 33.1 °F 56% 30.12 in 10.0 mi WNW 8.1 mph 17.3 mph N/A   Mostly Cloudy
2:54 PM 51.1 °F - 30.9 °F 46% 30.12 in 10.0 mi WNW 12.7 mph 19.6 mph N/A   Scattered Clouds
3:54 PM 52.0 °F - 30.9 °F 45% 30.12 in 10.0 mi WNW 11.5 mph - N/A   Mostly Cloudy
4:54 PM 50.0 °F - 30.9 °F 48% 30.10 in 10.0 mi Calm Calm - N/A   Clear
6:54 PM 43.0 °F - 35.1 °F 74% 30.10 in 10.0 mi Calm Calm - N/A   Clear
7:54 PM 37.9 °F 33.5 °F 34.0 °F 86% 30.10 in 10.0 mi SSE 5.8 mph - N/A   Clear
8:54 PM 36.0 °F - 32.0 °F 86% 30.08 in 10.0 mi Calm Calm - N/A   Clear
9:54 PM 39.0 °F - 32.0 °F 76% 30.08 in 10.0 mi Calm Calm - N/A   Clear
10:54 PM 36.0 °F - 32.0 °F 86% 30.09 in 10.0 mi Calm Calm - N/A   Clear
11:54 PM 35.1 °F - 32.0 °F 89% 30.08 in 10.0 mi Calm Calm - N/A   Clear